Regional Weather Roundup
Issued by NWS

Home | Current Version | Previous Version | Graphics & Text | Print | Product List | Glossary On
Versions: 1 2 3 4 5 6 7 8 9 10 11 12 13 14 15 16 17 18 19 20 21 22 23 24 25 26 27 28 29 30 31 32 33 34 35 36 37 38 39 40 41 42 43 44 45 46 47 48 49 50
000
ASUS45 KABQ 261301
RWRNM
WEATHER ROUNDUP FOR NEW MEXICO
NATIONAL WEATHER SERVICE ALBUQUERQUE NM
700 AM MDT SAT JUL 26 2014

NOTE: "FAIR" MEANS FEW OR NO CLOUDS BELOW 12,000 FEET AGL WITH NO
       SIGNIFICANT WEATHER OR OBSTRUCTIONS TO VISION.

      THIS PRODUCT IS RELEASED AS TWO VERSIONS.  ONE VERSION NEAR
      THE TOP OF THE HOUR CONTAINING PRELIMINARY DATA FROM ALBUQUERQUE
      AND OTHER STATIONS.  A FINAL VERSION WITH ADDITIONAL DATA IS
      ISSUED ABOUT 10 MINUTES AFTER THE HOUR.

NMZ501-503-504-510>518-261400-
NORTHWEST PLATEAU/NORTHCENTRAL MOUNTAINS

CITY           SKY/WX    TMP DP  RH WIND       PRES   REMARKS
FARMINGTON     CLEAR     68  44  42 E6        30.18R
LOS ALAMOS     PTCLDY    69  44  39 N7        30.33R
SANTA FE       CLEAR     65  49  56 N7        30.25R
TAOS           CLEAR     55  43  62 N6        30.34R
ANGEL FIRE     FAIR      46  43  89 CALM      30.45S

$$
NMZ402-403-502-505>509-261400-
WESTCENTRAL MOUNTAINS/SOUTHWEST MOUNTAINS

CITY           SKY/WX    TMP DP  RH WIND       PRES   REMARKS
GALLUP         CLEAR     59  40  49 NE3       30.30R
GRANTS         PTCLDY    61  47  60 CALM      30.31R

$$
NMZ407-409-411-412-261400-
SOUTHERN DESERTS

CITY           SKY/WX    TMP DP  RH WIND       PRES   REMARKS
LORDSBURG      FAIR      70  55  60 W5        30.12S
DEMING         CLEAR     70  57  63 S7        30.09R
LAS CRUCES     CLEAR     71  47  42 CALM      30.10S
HOLLOMAN AFB   CLEAR     71  41  34 SE6       30.07R
T OR C         CLEAR     77  48  35 NW8       30.12R

$$
NMZ519>523-261400-
CENTRAL VALLEYS/CENTRAL HIGHLANDS

CITY           SKY/WX    TMP DP  RH WIND       PRES   REMARKS
ALBUQUERQUE    PTCLDY    72  45  37 E10       30.17R
DOUBLE EAGLE   PTCLDY    66  45  45 N7        30.22R
CLINES CORNERS CLEAR     66  39  37 W10       30.28R
BELEN          FAIR      71  50  47 W6        30.16R
SOCORRO        FAIR      72  40  31 CALM      30.14R

$$
NMZ524>526-539-540-261400-
SOUTHCENTRAL MOUNTAINS

CITY           SKY/WX    TMP DP  RH WIND       PRES   REMARKS
RUIDOSO        NOT AVBL

$$
NMZ527>531-261400-
NORTHEAST HIGHLANDS/NORTHEAST PLAINS

CITY           SKY/WX    TMP DP  RH WIND       PRES   REMARKS
LAS VEGAS      CLEAR     60  47  61 N8        30.27R
RATON          SUNNY     60  52  74 NE7       30.22R
CLAYTON        MOSUNNY   70  48  45 NW7       30.10R

$$
NMZ532>537-261400-
EASTCENTRAL PLAINS

CITY           SKY/WX    TMP DP  RH WIND       PRES   REMARKS
TUCUMCARI      MOSUNNY   78  56  46 SW14      30.05R
CANNON AFB     SUNNY     71  57  62 S9        30.11S
CLOVIS AIRPORT NOT AVBL

$$
NMZ028-029-538-261400-
SOUTHEAST PLAINS

CITY           SKY/WX    TMP DP  RH WIND       PRES   REMARKS
ROSWELL        CLEAR     73  56  54 S9        30.05R
ARTESIA        CLEAR     72  57  60 S6        30.06R
CARLSBAD       CLEAR     74  56  53 SE7       30.03R
HOBBS          SUNNY     70  59  68 CALM      30.09R


$$


USA.gov is the U.S. government's official web portal to all federal, state and local government web resources and services.